Tracking 29892 objects as of 21-Nov-2024
HD Live streaming from Space Station
objects crossing your sky now

MOLNIYA 1-53

Track MOLNIYA 1-53 now!
MOLNIYA 1-53 is classified as:


NORAD ID: 13070
Int'l Code: 1982-015A
Perigee: 1,665.0 km
Apogee: 38,730.3 km
Inclination: 62.8 °
Period: 718.3 minutes
Semi major axis: 26568 km
RCS: 15.1776 m2 (large)
Launch date: February 26, 1982
Source: Commonwealth of Independent States (former USSR) (CIS)
Launch site: PLESETSK MISSILE AND SPACE COMPLEX (PKMTR)
Your satellite tracking list
Your tracking list is empty




NASA's NSSDC Master Catalog

Two Line Element Set (TLE):
1 13070U 82015A   24325.54680324  .00001423  00000-0  54127-1 0  9995
2 13070  62.7802 109.7330 6975392 283.4960  12.8948  2.00469634313041
Source of the keplerian elements: AFSPC